Location: Chin
(49.7667°N, 112.4500°W)
Time: 10:37:08
(UTC+00:00)

Envisat - Visible Passes

Search period start: 04 October 2022 00:00
Search period end: 14 October 2022 00:00
Orbit: 764 x 765 km, 98.2° (Epoch: 03 October)

Date Brightness Start Highest point End Pass type
(mag) Time Alt. Az. Time Alt. Az. Time Alt. Az.
04 Oct 3.6 11:42:25 10° NNE 11:47:28 59° E 11:52:27 10° S visible
05 Oct 4.8 11:05:50 10° NNE 11:10:16 29° E 11:14:41 10° SSE visible
05 Oct 3.3 12:44:37 10° N 12:49:26 44° WNW 12:54:14 10° SW visible
06 Oct 5.8 10:30:04 10° NE 10:32:53 15° E 10:35:41 10° ESE visible
06 Oct 2.9 12:07:28 10° NNE 12:12:36 86° WNW 12:17:40 10° SSW visible
07 Oct 4.0 11:30:37 10° NNE 11:35:33 47° E 11:40:26 10° S visible
08 Oct 5.2 10:54:13 10° NE 10:58:18 24° E 11:02:21 10° SE visible
08 Oct 3.1 12:32:40 10° N 12:37:38 54° WNW 12:42:34 10° SW visible
09 Oct 5.9 10:19:06 10° ENE 10:20:50 12° E 10:22:34 10° ESE visible
09 Oct 3.1 11:55:36 10° NNE 12:00:43 77° ESE 12:05:48 10° S visible
10 Oct 4.4 11:18:52 10° NNE 11:23:36 38° E 11:28:19 10° SSE visible
10 Oct 3.6 12:57:59 10° N 13:02:34 35° WNW 13:07:08 10° SW visible
11 Oct 5.5 10:42:40 10° NE 10:46:18 19° E 10:49:54 10° SE visible
11 Oct 2.9 12:20:44 10° N 12:25:48 67° WNW 12:30:50 10° SSW visible
12 Oct 3.5 11:43:46 10° NNE 11:48:49 62° ESE 11:53:50 10° S visible
13 Oct 4.7 11:07:09 10° NNE 11:11:39 31° E 11:16:07 10° SSE visible
13 Oct 3.4 12:46:00 10° N 12:50:47 42° WNW 12:55:32 10° SW visible
